Location: Lane
(33.5226°N, 79.8788°W)
Time: 08:04:43
(UTC+00:00)

Explorer 7 - Pass Details

Date: 05 October 2022
Orbit: 481 x 665 km, 50.3° (Epoch: 28 November)

Event Time Altitude Azimuth Distance (km) Brightness Sun altitude
Rises 14:38:50 0° 239° (WSW) 2,964 10.4 37.9°
Reaches altitude 10° 14:41:11 10° 244° (WSW) 2,068 9.7 38.3°
Maximum altitude 14:45:54 55° 322° (NW) 796 7.8 39.0°
Drops below altitude 10° 14:50:39 10° 41° (NE) 2,082 9.8 39.7°
Sets 14:53:02 0° 45° (NE) 2,986 10.6 40.1°
